Weather observations for the past three days for
Frankfort, Frankfort Dow Memorial Field Airport
Imperial (Metric)
Date Time (edt) Wind (mph) Vis. (mi.) Weather Sky Cond. Temperature (ºF) Relative Humidity Wind Chill (°F) Heat Index (°F) Pressure Precipitation (in)
Air Dwpt 6 hour altimeter (in) sea level (mb) 1 hr 3 hr 6 hr
Max. Min.
21 17:35 N 7 G 16 10.00 Fair CLR 78.4 56.8 48% 79 30.1 0.0
21 17:15 N 8 10.00 Fair CLR 79.3 58.3 49% 80 30.1 0.0
21 16:55 N 10 10.00 Fair CLR 79.3 60.1 52% 80 30.1 0.0
21 16:35 N 7 G 16 10.00 Fair CLR 79.7 60.6 52% 81 30.11 0.0
21 16:15 N 9 G 17 10.00 Fair CLR 79.5 61.7 55% 81 30.11 0.0
21 15:55 N 10 G 17 10.00 Fair CLR 78.8 61 54% 80 30.11 0.0
21 15:35 N 14 G 17 10.00 Fair CLR 78.3 61.3 56% 80 30.11 0.0
21 15:15 N 14 G 17 10.00 Fair CLR 78.4 62.2 58% 80 30.11 0.0
21 14:55 N 10 G 16 10.00 Fair CLR 78.6 62.8 58% 80 30.11 0.0
21 14:35 N 13 G 17 10.00 Fair CLR 78.1 61.9 58% 80 30.11 0.0
21 14:15 N 10 G 16 10.00 Fair CLR 78.8 59.9 52% 80 30.11 0.0
21 13:55 N 8 10.00 Fair CLR 78.3 59.9 79 68.9 53% 80 30.12 0.0
21 13:35 N 9 10.00 Fair CLR 79 58.6 50% 80 30.12 0.0
21 13:15 N 5 10.00 Fair CLR 78.3 59.2 52% 80 30.12 0.0
21 12:55 N 8 10.00 Fair CLR 77.9 59.7 54% 79 30.12 0.0
21 12:35 N 8 10.00 Fair CLR 77.7 59.9 54% 79 30.12 0.0
21 12:15 N 7 10.00 Fair CLR 77.9 61.7 58% 79 30.12 0.0
21 11:55 NW 6 10.00 Fair CLR 77.9 61.5 57% 79 30.13 0.0
21 11:35 E 3 10.00 Fair CLR 77.5 57.4 50% 79 30.12 0.0
21 11:15 E 6 10.00 Fair CLR 77.4 58.6 53% 79 30.12 0.0
21 10:55 N 5 10.00 Fair CLR 76.3 58.5 54% 78 30.12 0.0
21 10:35 E 5 10.00 Fair CLR 75 58.5 56% 78 30.12 0.0
21 10:15 NE 3 10.00 Fair CLR 74.5 59.5 60% 30.12 0.0
21 09:55 E 5 10.00 Fair CLR 72.9 59 62% 30.12 0.0
21 09:35 Calm 10.00 Partly Cloudy SCT080 72.3 59.4 64% 30.12 0.0
21 09:15 Calm 10.00 Partly Cloudy SCT080 71.6 59 65% 30.13 0.0
21 08:55 NE 5 10.00 Partly Cloudy SCT080 70.7 59.2 67% 30.13 0.0
21 08:35 Calm 10.00 Mostly Cloudy BKN075 70.2 59.2 68% 30.13 0.0
21 08:15 Calm 10.00 Mostly Cloudy BKN075 69.3 59 70% 30.13 0.0
21 07:55 Calm 10.00 Mostly Cloudy BKN075 68.9 59.4 68.9 64.6 72% 30.13 0.0
21 07:35 Calm 10.00 Partly Cloudy SCT075 67.1 59.9 78% 30.13 0.0
21 07:15 Calm 10.00 Partly Cloudy SCT075 66 60.3 82% 30.12 0.0
21 06:55 Calm 10.00 Fair CLR 66.2 60.3 81% 30.12 0.0
21 06:35 Calm 10.00 Fair CLR 66.2 60.1 81% 30.11 0.0
21 06:15 Calm 10.00 Partly Cloudy SCT085 66.7 59.9 79% 30.1 0.0
21 05:55 Calm 10.00 Mostly Cloudy BKN085 68.5 61.2 77% 30.1 0.0
21 05:35 E 3 10.00 Overcast OVC085 68.2 62.2 81% 30.09 0.0
21 05:15 NE 3 10.00 Overcast OVC085 68.2 63.5 85% 30.09 0.0
21 04:55 Calm 10.00 Overcast OVC085 68.2 64.4 88% 30.08 0.0
21 04:35 Calm 10.00 Overcast SCT008 OVC075 67.1 64 90% 30.08 0.0
21 04:15 Calm 10.00 Overcast SCT008 OVC075 66.2 63.3 91% 30.08 0.0
21 03:55 Calm 10.00 Overcast OVC075 64.9 62.1 90% 30.08 0.0
21 03:35 Calm 10.00 Partly Cloudy SCT075 65.7 62.4 89% 30.08 0.0
21 03:15 Calm 0.75 Fog/Mist VV005 65.7 62.4 89% 30.08 0.0
21 02:55 Calm 10.00 Partly Cloudy SCT100 66.4 62.8 88% 30.08 0.0
21 02:35 Calm 10.00 Mostly Cloudy BKN100 66.9 63.3 88% 30.09 0.0
21 02:15 Calm 10.00 Partly Cloudy SCT090 67.1 63.3 88% 30.09 0.0
21 01:55 Calm 10.00 Partly Cloudy SCT090 67.1 63.1 74.3 67.1 87% 30.09 0.0
21 01:35 Calm 10.00 Overcast OVC090 68 63.9 87% 30.09 0.0
21 01:15 Calm 10.00 Overcast SCT050 OVC090 68.4 63.9 86% 30.09 0.0
21 00:55 Calm 10.00 Partly Cloudy SCT090 68.9 63.7 84% 30.09 0.0
21 00:35 Calm 10.00 Light Rain SCT055 SCT065 BKN080 71.4 63.5 76% 30.09 0.0
20 23:55 Calm 10.00 Overcast BKN060 OVC100 72 62.6 73% 30.09 0.0
20 23:35 Calm 10.00 Mostly Cloudy BKN060 BKN090 72.3 62.2 71% 30.09 0.0
20 23:15 Calm 10.00 Overcast OVC060 72.7 62.2 70% 30.09 0.0
20 22:55 Calm 10.00 Mostly Cloudy BKN060 71.6 62.6 73% 30.1 0.0
20 22:35 Calm 10.00 Overcast BKN050 OVC085 72.5 62.6 71% 30.09 0.0
20 22:15 Calm 10.00 Mostly Cloudy BKN085 72.5 62.6 71% 30.09 0.0
20 21:55 Calm 10.00 Mostly Cloudy BKN050 72.1 63 73% 30.08 0.0
20 21:35 Calm 10.00 Overcast OVC050 72.3 63.1 73% 30.08 0.0
20 21:15 Calm 10.00 Partly Cloudy SCT050 72.1 62.8 73% 30.08 0.0
20 20:55 Calm 10.00 Fair CLR 72.5 62.8 72% 30.07 0.0
20 20:35 Calm 10.00 Fair CLR 72.7 62.6 71% 30.07 0.0
20 20:15 Calm 10.00 Fair CLR 73.4 61.9 67% 30.07 0.0
20 19:55 Calm 10.00 Fair CLR 74.5 61.7 80.1 74.5 65% 30.07 0.0
20 19:35 S 3 10.00 Fair CLR 75.2 61 61% 77 30.06 0.0
20 19:15 SW 5 10.00 Partly Cloudy SCT080 75.2 61.3 62% 77 30.07 0.0
20 18:55 SW 5 10.00 Mostly Cloudy SCT090 BKN100 76.1 60.6 59% 78 30.07 0.0
20 18:35 S 3 10.00 Mostly Cloudy BKN090 76.1 60.3 58% 78 30.07 0.0
20 18:15 SW 3 10.00 Overcast OVC090 76.6 60.4 57% 78 30.06 0.0
20 17:55 SW 8 10.00 Partly Cloudy SCT090 77.7 61.2 57% 79 30.07 0.0
20 17:35 SW 6 10.00 Fair CLR 78.4 61.9 57% 80 30.07 0.0
20 17:15 W 6 10.00 Fair CLR 78.6 61.5 56% 80 30.07 0.0
20 16:55 SW 7 10.00 Fair CLR 79 61 54% 80 30.07 0.0
20 16:35 SW 6 10.00 Fair CLR 79.7 61 53% 81 30.07 0.0
20 16:15 SW 8 10.00 Fair CLR 79.3 61.2 54% 81 30.07 0.0
20 15:55 SW 7 10.00 Fair CLR 78.6 61.2 55% 80 30.08 0.0
20 15:35 SW 8 10.00 Fair CLR 78.8 61.5 56% 80 30.08 0.0
20 15:15 S 7 10.00 Fair CLR 78.1 61.9 58% 80 30.09 0.0
20 14:55 SW 8 10.00 Fair CLR 78.8 62.2 57% 80 30.09 0.0
20 14:35 SW 8 10.00 Fair CLR 78.6 61.3 56% 80 30.09 0.0
20 14:15 W 8 10.00 Fair CLR 78.4 62.2 58% 80 30.09 0.0
20 13:55 W 8 10.00 Fair CLR 78.3 62.1 79.3 70 58% 80 30.09 0.0
20 13:35 W 9 10.00 Fair CLR 78.6 62.8 58% 80 30.1 0.0
20 13:15 W 6 10.00 Fair CLR 79.3 63.1 58% 81 30.1 0.0
20 12:55 W 7 10.00 Fair CLR 78.6 63 59% 80 30.09 0.0
20 12:35 W 7 10.00 Fair CLR 78.1 61.3 57% 80 30.1 0.0
20 12:15 SW 7 10.00 Fair CLR 76.8 63 62% 79 30.1 0.0
20 11:55 SW 7 10.00 Fair CLR 75.9 62.4 63% 78 30.1 0.0
20 11:35 SW 7 10.00 Fair CLR 76.5 63.1 64% 78 30.1 0.0
20 11:15 W 7 10.00 Fair CLR 75.9 63.3 65% 78 30.09 0.0
20 10:55 W 6 10.00 Fair CLR 75 63.1 67% 77 30.09 0.0
20 10:35 W 7 10.00 Fair CLR 75 63.3 67% 77 30.09 0.0
20 10:15 SW 6 10.00 Fair CLR 73.8 63.1 70% 30.09 0.0
20 09:55 W 6 10.00 Fair CLR 74.3 63.1 68% 30.1 0.0
20 09:35 SW 3 10.00 Fair CLR 73.4 63.1 70% 30.1 0.0
20 09:15 W 6 10.00 Fair CLR 73 63.7 73% 30.1 0.0
20 08:55 W 5 10.00 Fair CLR 72.3 63.9 75% 30.1 0.0
20 08:35 W 5 10.00 Fair CLR 71.6 63.5 76% 30.1 0.0
20 08:15 W 3 10.00 Fair CLR 70.9 63.5 78% 30.09 0.0
20 07:55 Calm 10.00 Fair CLR 69.8 63.9 69.8 65.1 82% 30.09 0.0
20 07:35 Calm 10.00 Fair CLR 67.6 63 85% 30.09 0.0
20 07:15 Calm 10.00 Fair CLR 65.1 61.2 87% 30.08 0.0
20 06:55 Calm 10.00 Fair CLR 66.2 61.7 86% 30.08 0.0
20 06:35 Calm 10.00 Fair CLR 66.9 61.7 83% 30.08 0.0
20 06:15 Calm 10.00 Fair CLR 68.2 63 84% 30.08 0.0
20 05:55 Calm 10.00 Fair CLR 68 62.8 83% 30.08 0.0
20 05:35 Calm 10.00 Fair CLR 68 62.8 83% 30.08 0.0
20 05:15 SW 3 10.00 Fair CLR 68.2 63 84% 30.07 0.0
20 04:55 Calm 10.00 Fair CLR 68.2 63.1 84% 30.07 0.0
20 04:35 Calm 10.00 Fair CLR 68.4 63.1 84% 30.07 0.0
20 04:15 Calm 10.00 Fair CLR 68.2 63 84% 30.08 0.0
20 03:55 Calm 10.00 Fair CLR 68.4 62.6 82% 30.07 0.0
20 03:35 SW 3 10.00 Fair CLR 68.5 62.6 81% 30.08 0.0
20 03:15 SW 3 10.00 Fair CLR 68.2 62.2 81% 30.08 0.0
20 02:55 Calm 10.00 Fair CLR 68.2 62.1 81% 30.08 0.0
20 02:35 Calm 10.00 Fair CLR 68.2 62.1 81% 30.09 0.0
20 02:15 Calm 10.00 Fair CLR 68.4 62.1 80% 30.09 0.0
20 01:55 Calm 10.00 Fair CLR 68.4 62.2 73.8 68 81% 30.1 0.0
20 01:35 Calm 10.00 Fair CLR 68.2 62.6 82% 30.1 0.0
20 01:15 S 3 10.00 Fair CLR 68 62.6 83% 30.1 0.0
20 00:55 Calm 10.00 Fair CLR 68.4 62.6 82% 30.11 0.0
20 00:35 Calm 10.00 Fair CLR 68.4 62.4 81% 30.11 0.0
20 00:15 Calm 10.00 Fair CLR 68.9 62.2 79% 30.11 0.0
19 23:55 Calm 10.00 Fair CLR 69.1 61.7 77% 30.1 0.0
19 23:35 Calm 10.00 Fair CLR 69.1 61.3 76% 30.1 0.0
19 23:15 Calm 10.00 Fair CLR 68.9 61 76% 30.11 0.0
19 22:55 SW 3 10.00 Fair CLR 69.3 60.8 75% 30.11 0.0
19 22:35 SW 3 10.00 Fair CLR 69.3 60.8 75% 30.11 0.0
19 22:15 SW 3 10.00 Fair CLR 69.3 60.4 74% 30.1 0.0
19 21:55 SW 3 10.00 Fair CLR 69.6 59.9 71% 30.1 0.0
19 21:35 Calm 10.00 Fair CLR 70.2 58.6 67% 30.1 0.0
19 21:15 S 5 10.00 Fair CLR 70.7 57.4 63% 30.09 0.0
19 20:55 SW 6 10.00 Fair CLR 71.1 57.6 63% 30.09 0.0
19 20:35 SW 3 10.00 Fair CLR 71.8 56.8 59% 30.09 0.0
19 20:15 S 5 10.00 Fair CLR 72.9 54.3 52% 30.09 0.0
19 19:55 SW 5 10.00 Fair CLR 73.9 52.3 77.9 73.9 47% 30.09 0.0
19 19:35 S 6 10.00 Fair CLR 74.7 51.8 45% 30.09 0.0
19 19:15 S 6 10.00 Fair CLR 75.4 52.2 44% 78 30.1 0.0
19 18:55 SW 8 10.00 Fair CLR 76.1 52.9 45% 78 30.11 0.0
19 18:35 SW 9 10.00 Fair CLR 76.1 51.8 43% 78 30.12 0.0
19 18:15 SW 5 10.00 Fair CLR 76.6 53.4 45% 78 30.12 0.0
19 17:55 SW 5 10.00 Fair CLR 77 55.2 47% 79 30.13 0.0
19 17:35 W 5 10.00 Fair CLR 77.2 54.5 46% 79 30.13 0.0
19 17:15 SW 6 10.00 Fair CLR 77 55.4 47% 79 30.13 0.0
19 16:55 SW 6 10.00 Fair CLR 75.9 57.9 54% 78 30.13 0.0
19 16:35 SW 9 10.00 Fair CLR 75.9 57.6 53% 78 30.14 0.0
19 16:15 SW 6 10.00 Fair CLR 76.3 57.2 52% 78 30.14 0.0
19 15:55 SW 8 10.00 Fair CLR 76.5 57.2 51% 78 30.14 0.0
19 15:35 W 6 10.00 Fair CLR 76.6 57.2 51% 78 30.14 0.0
19 15:15 SW 7 10.00 Fair CLR 76.3 56.5 50% 78 30.14 0.0
19 14:55 SW 6 10.00 Fair CLR 76.3 56.1 50% 78 30.14 0.0
19 14:35 W 9 10.00 Fair CLR 77.2 57.2 50% 79 30.15 0.0
19 14:15 W 8 10.00 Fair CLR 76.6 57.9 52% 78 30.15 0.0
19 13:55 SW 7 10.00 Fair CLR 75.9 56.8 75.9 59.5 52% 78 30.15 0.0
19 13:35 SW 6 10.00 Fair CLR 75 56.5 53% 78 30.16 0.0
19 13:15 SW 7 10.00 Fair CLR 74.1 59.7 61% 30.16 0.0
19 12:55 SW 8 10.00 Fair CLR 74.7 60.8 62% 30.16 0.0
19 12:35 W 9 10.00 Fair CLR 74.5 61.3 64% 30.17 0.0
19 12:15 SW 9 G 16 10.00 Fair CLR 73.6 61.2 65% 30.17 0.0
19 11:55 SW 9 10.00 Fair CLR 73.4 62.8 70% 30.17 0.0
19 11:35 W 10 10.00 Fair CLR 72.7 62.1 69% 30.17 0.0
19 11:15 SW 9 G 17 10.00 Fair CLR 72.9 62.2 69% 30.17 0.0
19 10:55 SW 7 10.00 Fair CLR 72.5 62.2 70% 30.18 0.0
19 10:35 SW 6 10.00 Fair CLR 72 62.1 71% 30.18 0.0
19 10:15 SW 9 10.00 Fair CLR 71.6 61.5 71% 30.18 0.0
19 09:55 SW 7 10.00 Fair CLR 71.6 61.9 72% 30.18 0.0
19 09:35 S 7 10.00 Fair CLR 71.2 61.7 72% 30.18 0.0
19 09:15 SW 6 10.00 Fair CLR 69.8 60.8 73% 30.18 0.0
19 08:55 S 3 10.00 Fair CLR 68.5 59.9 74% 30.18 0.0
19 08:35 Calm 10.00 Fair CLR 66 58.6 77% 30.18 0.0
19 08:15 Calm 10.00 Fair CLR 62.4 56.8 82% 30.18 0.0
19 07:55 Calm 10.00 Fair CLR 59.2 55.2 59.2 50 87% 30.18 0.0
19 07:35 Calm 10.00 Fair CLR 55.6 52 88% 30.18 0.0
19 07:15 Calm 10.00 Fair CLR 52.7 48.9 87% 30.18 0.0
19 06:55 Calm 10.00 Fair CLR 51.4 47.5 86% 30.17 0.0
19 06:35 Calm 10.00 Fair CLR 50.7 46.6 86% 30.17 0.0
19 06:15 Calm 10.00 Fair CLR 50.5 46.9 88% 30.17 0.0
19 05:55 Calm 10.00 Fair CLR 50.2 46.6 88% 30.17 0.0
19 05:35 Calm 10.00 Fair CLR 50.2 46.6 88% 30.17 0.0
19 05:15 Calm 10.00 Fair CLR 50.5 46.8 87% 30.16 0.0
19 04:55 Calm 10.00 Fair CLR 50.9 47.3 88% 30.16 0.0
19 04:35 Calm 10.00 Fair CLR 50.9 47.1 87% 30.15 0.0
19 04:15 Calm 10.00 Fair CLR 51.3 47.5 87% 30.15 0.0
19 03:55 Calm 10.00 Fair CLR 51.1 47.5 88% 30.15 0.0
19 03:35 Calm 10.00 Fair CLR 50.9 47.3 88% 30.16 0.0
19 03:15 Calm 10.00 Fair CLR 51.1 47.3 87% 30.15 0.0
19 02:55 Calm 10.00 Fair CLR 51.4 47.7 87% 30.16 0.0
19 02:35 Calm 10.00 Fair CLR 51.8 47.7 86% 30.17 0.0
19 02:15 Calm 10.00 Fair CLR 51.8 47.7 86% 30.17 0.0
19 01:55 Calm 10.00 Fair CLR 52.7 48.4 71.1 52 85% 30.17 0.0
19 01:35 Calm 10.00 Fair CLR 52 47.7 85% 30.17 0.0
19 01:15 Calm 10.00 Fair CLR 52.9 48.6 85% 30.17 0.0
19 00:55 Calm 10.00 Fair CLR 52.3 47.7 84% 30.17 0.0
19 00:35 Calm 10.00 Fair CLR 53.2 48.2 83% 30.17 0.0
19 00:15 Calm 10.00 Fair CLR 53.8 49.1 84% 30.17 0.0
18 23:55 Calm 10.00 Fair CLR 54.1 49.1 83% 30.16 0.0
18 23:35 Calm 10.00 Fair CLR 54.5 49.5 83% 30.16 0.0
18 23:15 Calm 10.00 Fair CLR 55.4 49.8 82% 30.17 0.0
18 22:55 Calm 10.00 Fair CLR 55.4 49.6 81% 30.17 0.0
18 22:35 Calm 10.00 Fair CLR 56.8 50.5 80% 30.17 0.0
18 22:15 Calm 10.00 Fair CLR 55.8 49.8 81% 30.16 0.0
18 21:55 Calm 10.00 Fair CLR 57.6 50.9 79% 30.16 0.0
18 21:35 Calm 10.00 Fair CLR 59.9 52.2 76% 30.16 0.0
18 21:15 Calm 10.00 Fair CLR 62.4 52.3 70% 30.15 0.0
18 20:55 Calm 10.00 Fair CLR 64.9 51.8 63% 30.16 0.0
18 20:35 Calm 10.00 Fair CLR 67.6 52 57% 30.16 0.0
18 20:15 Calm 10.00 Fair CLR 70 49.5 48% 30.16 0.0
18 19:55 Calm 10.00 Fair CLR 71.1 47.5 73.2 70.2 43% 30.17 0.0
18 19:35 Calm 10.00 Fair CLR 70.3 47.5 44% 30.17 0.0
18 19:15 W 3 10.00 Fair CLR 71.1 46.6 42% 30.17 0.0
18 18:55 NW 3 10.00 Fair CLR 71.1 46.9 42% 30.17 0.0
18 18:35 NW 5 10.00 Fair CLR 71.4 46.9 42% 30.17 0.0
18 18:15 NW 7 10.00 Fair CLR 71.6 47.1 42% 30.18 0.0
18 17:55 N 7 10.00 Fair CLR 72.5 47.3 41% 30.18 0.0
Date Time (edt) Wind (mph) Vis. (mi.) Weather Sky Cond. Air Dwpt Max. Min. Relative Humidity Wind Chill (°F) Heat Index (°F) altimeter (in) sea level (mb) 1 hr 3 hr 6 hr
6 hour
Temperature (ºF) Pressure Precipitation (in)